Location: Unspecified
(0.0000°N, 0.0000°E)
Time: 05:50:19
(UTC+00:00)

ISS - Pass Details

Date: 21 October 2017
Orbit: 400 x 408 km, 51.6° (Epoch: 24 October)

Event Time Altitude Azimuth Distance (km) Brightness Sun altitude
Rises 19:17:47 0° 292° (WNW) 2,314 0.9 -22.9°
Reaches altitude 10° 19:20:46 10° 262° (W) 1,459 0.1 -23.6°
Maximum altitude 19:22:18 13° 234° (SW) 1,310 -0.4 -24.0°
Drops below altitude 10° 19:23:49 10° 206° (SSW) 1,463 -0.6 -24.3°
Enters shadow 19:26:11 - 180° (S) 2,102 -0.1 -24.9°
